Theta_e
320 323 326 327 329 331 333 335 336 337 339 336 333 334 336 334 348 361 352 352 356 357 356 349 347 347 347 341 336 333 334 335 338 337 337 337 340 342 344 343 343 344 342 341 338 331 317 323 327
320 323 325 327 330 331 332 334 336 338 334 333 332 332 333 337 350 351 352 352 356 357 355 354 348 347 346 339 335 333 335 336 338 337 337 337 338 342 344 345 344 343 340 334 327 318 318 327 329
318 322 326 328 330 332 333 333 335 336 333 333 333 333 335 351 349 355 352 354 357 357 356 355 348 347 345 338 334 334 336 337 337 337 337 337 337 340 343 343 345 341 335 325 318 316 320 331 334
321 324 325 328 331 331 332 334 331 334 332 332 333 334 349 351 350 352 353 351 357 356 356 352 348 346 344 338 335 335 337 337 337 337 337 337 336 337 340 341 339 336 328 318 316 318 324 329 334
319 324 327 328 330 331 333 333 330 330 331 332 332 336 349 350 351 350 350 349 354 354 356 354 348 347 345 342 339 338 338 339 338 338 338 338 337 337 338 338 335 331 321 317 317 319 331 334 335
321 323 327 330 330 331 332 334 333 329 330 330 330 332 337 340 352 347 347 350 351 351 358 353 347 347 347 346 346 345 342 342 340 338 338 338 338 338 338 336 335 328 319 317 317 322 327 332 333
321 325 326 327 330 331 331 332 331 329 329 329 329 331 332 332 341 351 348 348 348 350 359 357 348 348 347 347 347 346 347 345 342 339 338 340 339 339 337 335 332 324 318 316 317 320 325 327 327
320 323 326 326 328 329 331 332 331 330 330 329 328 328 331 329 332 347 349 347 347 348 358 356 353 354 349 348 347 346 347 347 345 341 339 341 341 340 338 336 333 325 320 318 316 316 317 318 318
319 321 324 325 326 328 329 331 332 330 328 329 328 327 328 327 328 339 349 349 347 348 353 353 353 354 353 355 352 350 352 349 347 343 340 344 343 341 340 336 333 324 323 321 316 315 315 315 316
319 320 319 321 323 325 327 328 328 327 326 328 329 329 326 327 327 330 343 350 348 347 349 351 351 352 351 351 353 352 354 353 348 346 343 346 347 346 346 340 337 327 322 320 317 316 317 318 319
318 320 320 320 321 322 323 323 324 324 325 326 330 330 328 329 327 328 329 339 346 347 346 350 350 350 349 348 350 350 355 354 352 352 352 348 347 347 343 340 333 334 323 320 318 317 318 319 322
318 319 320 321 321 322 322 322 322 322 322 323 324 323 323 324 325 325 325 325 329 341 346 349 349 349 348 347 349 349 351 352 353 353 353 350 348 345 342 340 336 333 330 322 329 322 322 324 331
318 319 320 320 320 321 321 321 321 319 320 320 321 321 321 322 323 322 323 324 326 330 341 349 352 351 348 348 350 349 346 348 348 349 350 350 346 345 343 339 340 337 333 327 332 331 331 331 335
319 319 320 320 320 320 319 319 319 319 319 319 320 320 320 320 321 321 322 324 326 326 334 346 353 351 352 347 351 350 346 347 346 345 346 347 345 346 343 337 340 337 334 335 330 335 335 335 335
319 319 320 319 319 319 319 319 319 319 319 320 320 320 321 322 321 323 323 324 326 327 328 342 352 353 353 350 348 353 349 349 346 345 344 344 347 346 343 339 340 340 334 337 334 336 334 335 335
319 319 319 320 319 319 319 319 320 321 320 320 320 319 320 322 322 322 322 323 325 328 332 332 348 356 355 354 349 353 351 349 349 346 344 346 346 347 344 342 341 339 340 337 340 337 337 334 336
319 318 319 319 320 320 319 319 319 320 320 319 320 321 321 321 323 321 323 323 324 324 325 328 337 351 356 357 354 351 355 352 352 348 347 346 343 347 347 344 342 341 341 339 339 338 337 337 335
318 318 318 319 320 319 318 318 318 319 319 320 321 320 320 321 322 323 321 321 324 325 325 325 330 351 357 359 358 357 354 353 353 351 348 347 346 347 347 343 342 343 341 342 339 339 337 336 337
318 318 319 319 319 318 318 319 319 320 320 320 321 321 323 322 321 320 321 320 321 321 325 324 325 346 351 356 359 358 356 355 354 351 352 348 348 347 344 346 343 342 343 342 341 339 338 337 336
319 318 319 319 318 319 319 320 320 320 321 322 323 324 324 324 324 324 323 322 320 320 326 327 327 330 353 354 355 358 356 354 354 354 351 352 349 348 346 345 342 341 342 341 340 338 340 341 338
319 319 319 318 319 320 320 320 321 321 322 323 323 324 322 324 325 326 328 325 322 323 326 327 327 327 329 356 355 356 355 353 354 353 353 351 350 350 349 346 339 342 344 344 344 345 343 341 339
319 319 318 319 319 319 320 323 323 323 323 323 323 324 323 323 324 324 326 327 326 325 323 325 325 328 328 329 349 353 354 353 351 353 353 351 353 353 351 347 346 343 344 344 344 343 345 343 343
318 319 319 320 321 322 322 323 323 324 323 323 324 323 323 322 323 322 324 323 324 323 323 323 326 327 326 332 331 336 348 352 353 352 353 353 353 353 351 349 348 346 342 347 345 345 347 346 343
319 319 320 321 322 323 323 324 324 324 322 322 322 322 321 321 323 324 323 323 324 324 323 324 324 326 326 329 333 332 337 347 351 350 349 349 350 351 353 351 351 351 348 349 349 349 348 349 346
320 321 323 325 328 328 325 326 326 322 321 321 321 320 320 320 320 321 321 322 322 322 322 323 323 325 324 325 328 333 335 336 345 349 348 349 349 350 351 350 351 352 352 350 351 349 350 351 349
321 323 327 330 329 326 324 324 322 320 320 321 320 320 320 320 321 320 320 321 319 320 321 321 322 323 325 326 324 326 330 338 340 346 348 347 347 347 349 352 351 351 352 352 351 351 350 351 347
321 323 322 325 324 325 323 321 321 319 322 322 321 321 319 320 321 320 319 318 318 319 320 321 321 322 322 323 326 328 330 330 339 343 346 348 349 348 348 348 351 351 352 353 352 350 349 349 349
320 321 322 321 327 326 323 320 319 319 318 318 318 317 317 318 318 320 321 319 318 317 317 319 320 321 320 322 325 325 329 329 330 342 345 347 347 348 351 348 349 352 352 353 351 350 348 351 351
320 321 321 322 324 324 323 321 320 319 318 318 317 316 317 319 318 318 318 318 318 317 317 316 317 317 317 320 322 324 325 331 329 334 341 346 344 347 349 350 351 348 352 352 351 350 350 349 347
320 319 320 327 325 325 328 324 320 319 318 319 317 319 318 319 319 318 318 317 317 317 317 317 317 318 317 317 320 322 323 328 330 335 338 343 344 344 347 347 347 348 347 346 345 346 348 347 349
Wind_Speed
15 17 21 20 7 8 18 22 23 25 1 0 10 7 7 17 9 7 15 17 32 28 27 28 27 26 25 23 25 25 24 23 22 21 20 19 18 18 18 17 16 15 13 11 10 9 11 12 13
14 15 19 10 12 14 16 22 24 22 15 11 6 3 8 4 16 12 13 16 29 28 26 25 28 27 26 24 24 25 24 23 23 22 21 19 19 18 17 15 14 12 10 9 9 10 11 12 11
14 15 9 9 15 17 18 21 16 4 11 5 1 2 6 7 14 19 15 24 26 25 25 23 28 27 26 25 25 24 23 23 23 22 21 19 18 17 16 14 12 10 9 9 9 11 11 11 9
9 14 9 14 20 24 26 22 16 11 7 3 3 3 8 13 5 10 12 20 23 21 21 23 28 27 26 25 25 24 24 23 23 22 21 19 18 17 15 13 12 10 10 10 10 11 11 10 8
20 9 14 18 24 24 23 20 10 2 3 7 7 5 11 13 10 11 9 18 19 20 22 20 28 26 26 25 24 23 23 23 23 22 20 18 18 17 16 15 13 12 11 11 11 11 11 9 8
13 13 15 19 23 24 23 7 16 8 8 5 1 4 11 12 10 9 10 15 17 20 20 20 26 26 25 25 24 23 22 22 22 23 21 19 17 16 15 14 12 12 11 11 11 11 11 8 6
20 16 21 24 22 24 19 17 10 9 12 10 9 1 12 13 7 5 8 12 17 21 20 17 25 25 24 23 23 24 24 23 23 23 22 19 18 16 15 14 14 13 12 12 11 11 10 9 8
16 16 26 24 21 24 12 16 16 18 16 15 10 4 4 8 6 1 7 13 15 20 22 19 22 20 22 22 21 21 24 25 25 24 22 19 17 16 15 14 14 13 12 12 11 11 10 9 8
25 16 18 27 27 22 20 21 20 17 9 15 8 7 13 10 4 0 9 10 16 20 23 25 23 21 20 17 19 20 19 24 25 24 23 20 18 17 15 14 12 13 12 11 11 11 10 9 9
20 17 26 24 24 23 21 18 21 5 8 18 18 17 17 14 5 6 6 10 15 20 24 28 29 25 23 21 20 19 18 20 25 22 24 20 16 14 14 14 15 13 13 12 12 11 10 10 10
24 20 22 25 25 15 9 4 2 6 14 16 19 18 13 20 8 7 7 5 14 21 24 31 36 31 26 24 26 22 19 19 21 20 20 23 18 18 18 20 17 16 15 14 14 14 13 12 9
23 24 21 24 20 4 7 9 12 11 15 18 15 12 12 16 9 10 11 16 9 21 12 25 36 35 32 26 31 27 24 23 22 23 23 21 22 21 22 19 19 18 17 16 14 14 13 10 9
20 21 21 21 23 4 7 16 16 18 15 14 13 11 14 12 10 16 19 22 22 10 15 19 32 32 32 28 25 29 29 27 25 25 27 24 25 23 22 21 20 20 20 20 21 16 18 13 14
17 20 18 13 17 12 13 15 17 17 12 16 16 13 12 13 13 18 22 22 20 20 11 34 14 33 31 33 21 27 31 29 30 26 30 31 30 26 26 25 22 23 23 23 24 22 18 18 14
15 11 15 22 14 17 15 19 19 17 15 17 12 11 11 11 12 11 18 21 24 21 20 16 28 30 32 34 32 18 27 23 35 30 30 35 32 31 33 29 25 24 25 22 22 21 20 16 13
13 13 15 17 19 16 13 15 16 21 18 17 13 11 12 12 11 12 15 19 14 6 10 12 20 24 31 32 34 24 24 29 29 33 33 37 35 33 33 35 32 30 25 26 21 24 20 21 18
12 14 19 20 26 13 16 14 18 7 10 8 7 8 9 10 10 17 16 15 5 8 13 15 15 25 28 31 35 36 23 27 25 30 31 39 43 41 35 31 31 28 25 27 24 20 21 19 21
17 19 15 18 15 12 13 15 15 12 13 13 14 16 13 10 10 12 15 17 11 14 6 10 16 15 28 27 27 26 29 27 29 29 36 32 39 35 32 36 27 28 28 22 25 23 24 25 21
19 15 15 7 3 3 9 11 13 13 11 12 9 11 11 14 10 17 18 18 14 8 4 9 17 14 20 22 24 25 27 29 31 35 28 36 38 38 40 28 28 32 29 26 27 28 28 27 25
11 12 14 14 12 10 11 14 15 16 15 14 13 10 10 8 13 11 14 14 14 14 12 10 14 22 19 24 29 28 29 31 32 30 34 30 37 39 40 34 32 31 33 36 35 37 29 27 27
13 14 14 15 14 10 10 16 17 19 20 18 17 13 6 8 6 6 6 15 20 17 17 16 16 19 25 22 27 27 27 28 28 35 36 40 40 40 41 39 43 40 39 34 33 32 31 23 29
12 14 15 12 9 10 13 13 16 14 13 12 13 10 9 1 8 9 9 14 19 13 14 13 16 18 18 21 21 25 28 28 33 29 34 39 40 42 43 44 44 41 30 31 31 34 30 28 19
9 11 8 10 13 14 17 11 15 16 17 7 12 15 15 13 13 12 12 17 18 19 17 14 9 9 10 14 19 23 31 31 33 34 32 37 39 42 43 45 37 39 35 34 35 33 32 30 23
5 10 14 15 15 14 22 18 15 9 9 11 11 11 9 10 12 13 16 16 18 20 18 19 18 15 17 18 19 24 26 33 30 33 32 35 35 40 40 40 38 35 37 33 35 32 34 32 31
15 12 11 12 10 14 16 5 9 4 7 4 6 3 4 4 4 7 11 13 17 19 22 21 22 21 21 22 22 23 28 31 34 34 33 33 35 32 37 41 39 39 42 44 39 40 34 37 32
11 10 7 8 11 15 16 8 9 16 9 10 4 6 6 5 5 6 8 9 15 15 18 17 21 22 23 21 25 29 33 30 31 37 35 36 35 39 40 36 41 44 42 42 40 37 38 36 38
5 7 4 8 13 11 13 18 15 8 11 9 3 3 9 10 10 10 11 12 12 15 15 21 21 21 22 26 25 27 30 33 33 34 37 39 37 38 43 38 43 47 46 43 39 37 34 34 31
13 10 9 6 5 12 10 8 5 10 11 7 10 9 10 12 13 7 10 9 9 13 17 17 22 24 23 28 26 26 29 31 35 36 36 39 40 41 45 46 50 46 44 40 38 35 36 32 30
8 10 11 5 7 4 8 9 11 11 11 8 11 11 14 14 8 10 10 14 15 15 16 20 18 21 28 29 28 25 30 33 32 33 38 37 40 42 39 43 49 49 41 43 43 39 36 34 29
12 11 8 7 7 10 11 12 14 9 10 14 14 18 15 15 15 13 14 16 17 18 19 23 18 19 25 29 26 23 32 32 28 31 35 37 37 41 47 21 20 40 40 24 38 35 34 31 27
Wind_Direction
280 286 274 263 252 230 252 249 247 270 176 176 37 3 323 334 31 92 97 95 120 138 153 157 160 161 161 163 164 162 162 163 162 159 156 149 144 139 136 134 134 132 132 131 128 125 125 125 119
272 290 282 263 247 244 246 239 248 251 83 51 10 284 285 319 67 115 101 121 129 141 152 158 163 163 164 166 169 166 167 168 167 164 161 156 152 149 146 144 142 138 137 136 135 135 136 131 121
265 267 274 247 236 239 253 240 242 281 77 100 0 211 254 23 39 67 101 119 127 140 146 166 165 165 167 170 171 171 172 173 172 169 167 162 158 157 155 153 150 147 144 144 145 143 144 138 128
247 239 241 249 242 235 248 270 322 212 96 96 322 297 75 53 36 61 117 135 129 142 154 169 169 169 171 173 174 177 177 179 177 175 173 167 165 163 164 164 159 159 157 156 154 152 151 147 140
242 255 233 235 237 248 250 259 356 242 267 181 122 269 88 55 60 83 126 149 139 150 161 172 174 175 176 178 179 183 183 184 183 181 179 175 173 170 172 173 170 168 169 163 162 162 161 160 158
222 227 239 233 234 236 253 243 263 272 278 250 248 279 91 71 83 114 138 152 153 152 151 172 182 179 181 183 184 188 192 191 190 188 185 183 180 178 179 177 178 177 176 172 170 170 170 176 180
236 222 230 242 238 233 237 243 272 263 256 247 47 293 91 67 60 130 157 161 159 154 150 164 177 182 184 189 192 194 197 198 196 194 192 189 186 185 186 185 186 186 185 180 181 181 180 188 200
229 242 234 232 241 255 254 244 221 260 274 287 100 269 81 77 32 162 186 173 175 161 156 160 172 178 183 190 198 200 201 201 200 198 196 194 191 190 191 191 192 193 193 190 190 193 194 203 213
228 233 241 239 234 230 253 230 231 227 291 286 311 279 310 96 33 287 268 199 183 165 157 158 172 179 178 179 191 196 196 201 202 200 201 197 191 194 199 194 202 199 200 201 200 205 206 213 226
230 226 239 244 251 255 223 239 271 150 246 249 281 280 285 281 174 262 211 293 194 171 166 165 172 178 184 182 194 186 188 193 199 202 201 201 188 204 196 199 199 211 206 205 209 212 217 229 234
226 237 232 246 250 244 322 278 136 248 240 243 239 256 251 278 268 248 282 242 281 186 176 172 172 175 184 196 187 187 186 190 198 199 207 196 193 204 188 198 203 209 211 210 214 218 222 230 244
232 232 251 258 263 230 240 270 277 244 238 249 265 290 296 307 323 336 335 301 239 286 207 174 174 175 177 196 181 180 186 191 196 199 201 201 196 197 190 199 208 212 212 206 221 226 229 225 233
239 235 233 250 265 215 233 249 254 260 271 285 273 255 274 275 289 291 281 262 280 260 196 293 171 173 180 193 180 180 186 193 196 200 202 199 197 197 195 200 194 204 204 208 210 218 227 223 232
234 236 244 246 264 259 243 238 234 239 260 263 260 262 246 256 247 241 246 261 253 261 223 199 171 183 181 190 205 185 188 192 198 198 201 199 202 198 195 200 201 208 202 211 204 213 222 208 233
245 258 229 249 222 244 246 248 240 236 216 251 235 235 249 276 259 255 246 245 247 243 253 192 189 186 186 194 203 205 196 192 196 197 204 204 201 205 191 200 207 205 203 210 211 207 215 219 222
251 251 255 230 227 227 227 252 252 235 204 223 240 271 261 253 284 294 281 259 243 307 327 263 196 184 189 192 202 209 206 202 198 197 204 207 198 206 201 194 204 201 207 207 208 206 209 219 221
232 246 233 252 216 193 201 242 244 144 148 194 209 240 262 280 264 278 283 286 289 295 290 293 304 202 196 194 200 211 214 212 210 203 206 207 206 206 201 203 197 204 214 205 206 214 211 219 226
225 218 234 251 156 191 233 225 251 256 231 210 212 211 223 228 256 265 270 288 290 242 250 286 277 234 197 189 193 201 214 219 219 215 212 214 210 210 204 204 202 202 209 207 201 215 215 219 227
283 305 312 308 22 280 301 296 286 285 270 263 255 257 230 207 215 240 249 249 271 289 248 253 273 278 225 200 204 202 207 218 221 215 220 212 207 206 209 207 201 205 202 206 211 212 214 218 224
297 290 283 289 295 283 270 274 276 274 271 260 258 255 262 269 202 210 209 218 233 249 239 222 247 266 245 222 216 215 212 217 219 220 221 215 209 203 207 205 206 208 203 210 213 214 215 213 210
259 264 276 282 285 304 297 279 263 253 243 241 240 232 245 263 280 279 222 211 221 224 217 214 220 238 253 240 227 228 231 232 230 217 217 219 213 201 198 201 204 211 202 204 217 210 205 203 216
253 246 246 264 281 269 275 295 298 293 277 254 233 231 218 54 28 10 355 19 15 356 274 213 228 225 235 256 247 236 224 223 229 222 219 214 209 203 199 210 211 213 206 208 219 220 209 207 208
261 311 323 295 280 283 272 262 263 251 234 229 74 51 34 19 4 346 356 347 346 340 333 320 338 320 258 240 257 260 256 244 238 235 228 215 207 199 196 205 214 211 214 214 211 212 213 215 215
310 293 285 273 259 257 257 249 261 285 27 90 75 48 29 20 9 359 349 338 349 343 335 337 343 349 341 328 261 254 254 254 251 239 231 232 228 207 202 208 212 211 210 217 214 212 211 210 211
258 238 260 269 237 251 265 360 267 10 99 73 83 74 51 5 0 343 327 331 327 330 330 342 340 331 321 315 311 296 259 254 251 249 234 231 225 220 207 205 210 212 207 208 208 210 211 204 206
284 286 265 264 300 303 312 281 306 324 89 97 59 15 3 338 347 314 295 289 294 299 302 328 319 313 311 305 301 292 288 259 247 241 240 233 227 228 229 214 208 212 214 208 199 204 199 198 205
249 269 6 294 276 278 279 280 262 229 85 72 75 231 263 252 220 243 264 245 271 300 303 310 309 301 304 299 298 291 282 279 252 242 235 235 226 225 227 224 224 217 211 206 199 205 205 200 201
267 288 292 263 293 263 274 332 342 21 358 343 326 319 317 311 294 324 356 318 307 289 279 287 306 298 285 289 282 293 288 276 274 241 236 233 232 230 220 208 221 217 211 202 196 199 202 191 192
291 233 239 276 242 258 279 276 279 3 322 338 299 293 286 291 318 320 302 294 303 290 284 275 286 301 299 299 295 294 304 293 272 272 241 234 234 236 239 216 214 219 210 198 189 194 188 191 198
289 267 249 214 249 257 259 268 280 278 321 296 286 315 340 341 331 336 337 320 311 307 321 318 292 288 287 292 294 304 304 301 314 282 247 239 230 237 235 247 228 214 213 208 204 195 186 185 192